Regional Weather Roundup
Issued by NWS Green Bay, WI

Home | Current Version | Previous Version | Text Only | Print | Product List | Glossary On
Versions: 1 2 3 4 5 6 7 8 9 10 11 12 13 14 15 16 17 18 19 20 21 22 23 24 25 26 27 28 29 30 31 32 33 34 35 36 37 38 39 40 41 42 43 44 45 46 47 48 49 50
000
ASUS43 KGRB 270500
RWRGRB

NORTH-CENTRAL AND NORTHEAST WISCONSIN REGIONAL WEATHER ROUNDUP
NATIONAL WEATHER SERVICE GREEN BAY WI
1200 AM CDT TUE SEP 27 2016

WIZ005-009-010>012-018-019-270600-
NORTH CENTRAL WISCONSIN

CITY           SKY/WX    TMP DP  RH WIND       PRES   REMARKS
IRONWOOD       LGT RAIN  49  47  93 W16       29.64F
MANITOWISH WTR NOT AVBL
ARBOR VITAE    NOT AVBL
EAGLE RIVER    NOT AVBL
LAND O LAKES   NOT AVBL
RHINELANDER    CLOUDY    49  46  90 W16       29.68F
PHILLIPS       NOT AVBL
ANTIGO         NOT AVBL
TOMAHAWK       NOT AVBL
MERRILL        NOT AVBL
$$

WIZ013-073-270600-
NORTHEAST WISCONSIN

CITY           SKY/WX    TMP DP  RH WIND       PRES   REMARKS
IRON MOUNTAIN  CLOUDY    51  44  77 W10G20    29.61F
MARINETTE      CLOUDY    54  43  66 W9        29.68F
$$

WIZ017-030-035>037-045-270600-
CENTRAL WISCONSIN

CITY           SKY/WX    TMP DP  RH WIND       PRES   REMARKS
MEDFORD        NOT AVBL
WAUSAU         CLOUDY    53  40  61 W14       29.72F
MOSINEE        NOT AVBL
MARSHFIELD     MOCLDY    52  39  61 W9        29.76F
WISC RAPIDS    CLOUDY    53  40  61 W9        29.79F
STEVENS POINT  NOT AVBL
WAUPACA        NOT AVBL
SHAWANO        NOT AVBL
CLINTONVILLE   NOT AVBL
WAUTOMA        MOCLDY    50  41  71 SW6       29.80
$$

WIZ038-039-048-051-270600-
FOX VALLEY

CITY           SKY/WX    TMP DP  RH WIND       PRES   REMARKS
NWS GREEN BAY  MOCLDY    54  43  66 SW9       29.73F
APPLETON       NOT AVBL
OSHKOSH        CLEAR     53  39  59 SW6       29.77F
FOND DU LAC    PTCLDY    52  40  63 SW7       29.80F
$$

WIZ022-050-052-270600-
EAST CENTRAL WISCONSIN

CITY           SKY/WX    TMP DP  RH WIND       PRES   REMARKS
EPHRAIM        NOT AVBL
WASHINGTON ISL NOT AVBL
STURGEON BAY   MOCLDY    57  43  59 W20G28    29.70F
MANITOWOC      NOT AVBL
SHEBOYGAN      PTCLDY    51  41  68 SW10      29.78F
$$

LMZ563-521-522-541>543-270600-
LAKESHORE

STATION/POSITION TIME  TEMP    WIND        PRES    VSBY  WAVE
                       AIR SEA DIR/SP/G                  HT/PER
                 (UTC) (F)     (DEG/KT/KT) (MB)    (MI)  (FT/S)
SHEBOYGAN LKSHOR 0400   55     230/  9/ 11 1008.9F
KEWAUNEE LKSHORE 0400   56     240/  6/ 14 1006.9F
N MID LAKE BUOY  0350   59 66  250/ 29/ 35 1003.2F         7/ 6
CHAMBERS ISLAND  0400   57     220/  9/ 20 1004.7F
MENOMINEE LKSHOR 0400   55     210/  7/ 11 1004.9F
$$




USA.gov is the U.S. government's official web portal to all federal, state and local government web resources and services.